Portada
METAR-TAF:

METAR-TAF

Aeropuertos :

Hannibal, Misuri, Estados Unidos

latitud: 39-43-31N, longitud: 091-26-38W, altitud: 234 m

Observación

El informe se hizo hace 28 minutos, a las 18:55 UTC
Viento 5 kt del sur-suroeste
Temperatura 32°C
Humedad 43%
Presión 1022 hPa
Visibilidad: 16.1 km
Nubes dispersas a una altura de 4600 ft

METAR: KHAE 191855Z AUTO 20005KT 10SM SCT046 32/18 A3019 RMK AO2

Hora: 14:23 (19:23 UTC)


TAF: falta

Observaciones y pronósticos meteorológicos de más de 4000 aeropuertos (mensajes METAR y TAF).

Los puntos amarillos y rojos representan las estaciones disponibles.

Ponga el ratón en el punto deseado para ver el nombre de la estación.

Haga clic para ver las observaciones y los pronósticos meteorológicos.

Para cambiar el mapa : haga clic en los botones verdes con una cruz de color negro para hacer un zoom, en el botón verde con un guión para alejar o en las flechas verdes para mapas adyacentes.


METAR-TAF: